When you browse on this site, cookies collect data to enhance your experience and personalize the content and advertising you see.
Visit our Privacy Policy to learn more. By continuing to use the site, you agree to this use of cookies and data.
  • In United Kingdom
  • List of Countries
  • For 7 days
  • Water Temperature
  • Satellite Maps
  • Weather Map
  • Weather Widgets
  • user-avatar
    Login

    Hourly Weather Masvingo

    Today, 21 March, Thursday

    Time Temperature Precipitation Wind Pressure Humidity
    00:00 +20°C° 0 mm 1 mps 669 mmHg 92%
    01:00 +19°C° 0 mm 1 mps 669 mmHg 93%
    02:00 +19°C° 0 mm 1 mps 669 mmHg 94%
    03:00 +17°C° 0 mm 0 mps 669 mmHg 94%
    04:00 +17°C° 0 mm 0 mps 669 mmHg 94%
    05:00 +16°C° 0 mm 0 mps 669 mmHg 94%
    06:00 +18°C° 0 mm 0 mps 669 mmHg 88%
    07:00 +19°C° 0 mm 0 mps 670 mmHg 82%
    08:00 +23°C° 0 mm 1 mps 671 mmHg 76%
    09:00 +25°C° 0 mm 2 mps 671 mmHg 68%
    10:00 +27°C° 0 mm 2 mps 672 mmHg 59%
    11:00 +28°C° 0 mm 3 mps 672 mmHg 51%
    12:00 +29°C° 0 mm 4 mps 672 mmHg 50%
    13:00 +29°C° 0 mm 4 mps 671 mmHg 50%
    14:00 +30°C° 0 mm 4 mps 671 mmHg 49%
    15:00 +29°C° 0 mm 4 mps 671 mmHg 53%
    16:00 +28°C° 0 mm 4 mps 670 mmHg 56%
    17:00 +27°C° 0 mm 4 mps 670 mmHg 60%
    18:00 +26°C° 0 mm 3 mps 670 mmHg 67%
    19:00 +24°C° 0 mm 3 mps 670 mmHg 74%
    20:00 +21°C° 0 mm 2 mps 671 mmHg 81%
    21:00 +21°C° 0 mm 2 mps 671 mmHg 84%
    22:00 +20°C° 0 mm 2 mps 671 mmHg 87%
    23:00 +20°C° 0 mm 2 mps 671 mmHg 90%

    Tomorrow, 22 March, Friday

    Time Temperature Precipitation Wind Pressure Humidity
    00:00 +20°C° 0 mm 1 mps 671 mmHg 92%
    01:00 +20°C° 0 mm 1 mps 671 mmHg 93%
    02:00 +19°C° 0 mm 1 mps 671 mmHg 95%
    03:00 +19°C° 0 mm 1 mps 671 mmHg 95%
    04:00 +19°C° 0 mm 1 mps 670 mmHg 95%
    05:00 +19°C° 0 mm 1 mps 670 mmHg 95%
    06:00 +20°C° 0 mm 1 mps 671 mmHg 88%
    07:00 +21°C° 0 mm 2 mps 672 mmHg 81%
    08:00 +22°C° 0 mm 3 mps 673 mmHg 75%
    09:00 +23°C° 0 mm 4 mps 673 mmHg 69%
    10:00 +26°C° 0 mm 4 mps 673 mmHg 63%
    11:00 +27°C° 0 mm 5 mps 674 mmHg 58%
    12:00 +28°C° 0 mm 5 mps 673 mmHg 56%
    13:00 +28°C° 0 mm 5 mps 673 mmHg 55%
    14:00 +29°C° 0 mm 5 mps 672 mmHg 53%
    15:00 +28°C° 0 mm 5 mps 672 mmHg 57%
    16:00 +27°C° 0 mm 5 mps 672 mmHg 61%
    17:00 +26°C° 0 mm 5 mps 671 mmHg 65%
    18:00 +25°C° 0 mm 4 mps 672 mmHg 72%
    19:00 +22°C° 0 mm 4 mps 672 mmHg 79%
    20:00 +21°C° 0 mm 3 mps 673 mmHg 87%
    21:00 +21°C° 0 mm 3 mps 673 mmHg 88%
    22:00 +20°C° 0 mm 3 mps 673 mmHg 90%
    23:00 +20°C° 0 mm 2 mps 673 mmHg 92%

    Day after tomorrow, 23 March, Saturday

    Time Temperature Precipitation Wind Pressure Humidity
    00:00 +19°C° 0 mm 2 mps 673 mmHg 93%
    01:00 +19°C° 0 mm 2 mps 673 mmHg 93%
    02:00 +18°C° 0 mm 2 mps 672 mmHg 93%
    03:00 +18°C° 0 mm 2 mps 672 mmHg 94%
    04:00 +18°C° 0 mm 2 mps 672 mmHg 94%
    05:00 +18°C° 0 mm 1 mps 672 mmHg 95%
    06:00 +19°C° 0 mm 2 mps 673 mmHg 87%
    07:00 +20°C° 0 mm 3 mps 673 mmHg 79%
    08:00 +21°C° 0 mm 4 mps 674 mmHg 71%
    09:00 +23°C° 0 mm 4 mps 674 mmHg 66%
    10:00 +25°C° 0 mm 4 mps 675 mmHg 61%
    11:00 +27°C° 0 mm 5 mps 675 mmHg 56%
    12:00 +27°C° 0 mm 5 mps 674 mmHg 55%
    13:00 +28°C° 0 mm 5 mps 674 mmHg 54%
    14:00 +28°C° 0 mm 5 mps 673 mmHg 52%
    15:00 +28°C° 0 mm 4 mps 672 mmHg 56%
    16:00 +27°C° 0 mm 4 mps 672 mmHg 59%
    17:00 +26°C° 0 mm 4 mps 672 mmHg 62%
    18:00 +24°C° 0 mm 3 mps 672 mmHg 68%
    19:00 +22°C° 0 mm 3 mps 672 mmHg 74%
    20:00 +20°C° 0 mm 2 mps 672 mmHg 80%
    21:00 +20°C° 0 mm 2 mps 672 mmHg 83%
    22:00 +19°C° 0 mm 2 mps 672 mmHg 86%
    23:00 +19°C° 0 mm 2 mps 672 mmHg 89%

    24 March, Sunday

    Time Temperature Precipitation Wind Pressure Humidity
    00:00 +18°C° 0 mm 2 mps 672 mmHg 91%
    01:00 +18°C° 0 mm 2 mps 672 mmHg 93%
    02:00 +19°C° 0 mm 1 mps 672 mmHg 94%
    03:00 +19°C° 0 mm 1 mps 671 mmHg 95%
    04:00 +19°C° 0 mm 1 mps 671 mmHg 95%
    05:00 +18°C° 0 mm 1 mps 671 mmHg 96%
    06:00 +18°C° 0 mm 2 mps 672 mmHg 91%
    07:00 +20°C° 0 mm 3 mps 673 mmHg 86%
    08:00 +21°C° 0 mm 3 mps 673 mmHg 82%
    09:00 +24°C° 0 mm 3 mps 673 mmHg 72%
    10:00 +25°C° 0 mm 4 mps 674 mmHg 63%
    11:00 +27°C° 0 mm 4 mps 674 mmHg 53%
    12:00 +28°C° 0 mm 4 mps 673 mmHg 50%
    13:00 +28°C° 0 mm 4 mps 672 mmHg 46%
    14:00 +29°C° 0 mm 4 mps 671 mmHg 42%
    15:00 +28°C° 0 mm 4 mps 671 mmHg 46%
    16:00 +28°C° 0 mm 3 mps 671 mmHg 50%
    17:00 +27°C° 0 mm 3 mps 671 mmHg 53%
    18:00 +25°C° 0 mm 3 mps 671 mmHg 61%
    19:00 +23°C° 0 mm 2 mps 671 mmHg 68%
    20:00 +20°C° 0 mm 2 mps 671 mmHg 76%
    21:00 +20°C° 0 mm 2 mps 671 mmHg 79%
    22:00 +20°C° 0 mm 1 mps 671 mmHg 82%
    23:00 +19°C° 0 mm 1 mps 671 mmHg 85%

    25 March, Monday

    Time Temperature Precipitation Wind Pressure Humidity
    00:00 +19°C° 0 mm 1 mps 670 mmHg 85%
    01:00 +19°C° 0 mm 1 mps 670 mmHg 86%
    02:00 +16°C° 0 mm 0 mps 670 mmHg 86%
    03:00 +16°C° 0 mm 0 mps 670 mmHg 83%
    04:00 +16°C° 0 mm 0 mps 669 mmHg 81%
    05:00 +16°C° 0 mm 0 mps 669 mmHg 78%
    06:00 +18°C° 0 mm 0 mps 670 mmHg 71%
    07:00 +20°C° 0 mm 0 mps 671 mmHg 64%
    08:00 +21°C° 0 mm 0 mps 672 mmHg 58%
    09:00 +25°C° 0 mm 1 mps 672 mmHg 51%
    10:00 +27°C° 0 mm 2 mps 672 mmHg 44%
    11:00 +29°C° 0 mm 2 mps 672 mmHg 38%
    12:00 +30°C° 0 mm 3 mps 672 mmHg 36%
    13:00 +31°C° 0 mm 3 mps 671 mmHg 34%
    14:00 +33°C° 0 mm 3 mps 670 mmHg 31%
    15:00 +31°C° 0 mm 3 mps 670 mmHg 36%
    16:00 +30°C° 0 mm 3 mps 670 mmHg 41%
    17:00 +29°C° 0 mm 3 mps 669 mmHg 45%
    18:00 +27°C° 0 mm 2 mps 669 mmHg 52%
    19:00 +25°C° 0 mm 2 mps 670 mmHg 58%
    20:00 +23°C° 0 mm 1 mps 670 mmHg 64%
    21:00 +22°C° 0 mm 1 mps 670 mmHg 66%
    22:00 +22°C° 0 mm 1 mps 670 mmHg 67%
    23:00 +21°C° 0 mm 1 mps 670 mmHg 68%

    26 March, Tuesday

    Time Temperature Precipitation Wind Pressure Humidity
    00:00 +21°C° 0 mm 1 mps 670 mmHg 69%
    01:00 +21°C° 0 mm 1 mps 670 mmHg 71%
    02:00 +21°C° 0 mm 1 mps 670 mmHg 72%
    03:00 +20°C° 0 mm 1 mps 670 mmHg 73%
    04:00 +20°C° 0 mm 1 mps 670 mmHg 73%
    05:00 +18°C° 0 mm 0 mps 670 mmHg 74%
    06:00 +21°C° 0 mm 1 mps 671 mmHg 69%
    07:00 +23°C° 0 mm 1 mps 672 mmHg 64%
    08:00 +25°C° 0 mm 1 mps 673 mmHg 58%
    09:00 +26°C° 0 mm 3 mps 673 mmHg 53%
    10:00 +28°C° 0 mm 4 mps 673 mmHg 48%
    11:00 +29°C° 0 mm 5 mps 673 mmHg 43%
    12:00 +30°C° 0 mm 5 mps 673 mmHg 43%
    13:00 +30°C° 0 mm 4 mps 672 mmHg 44%
    14:00 +30°C° 0 mm 4 mps 672 mmHg 45%
    15:00 +29°C° 0 mm 4 mps 672 mmHg 49%
    16:00 +28°C° 0 mm 4 mps 672 mmHg 53%
    17:00 +27°C° 0 mm 4 mps 672 mmHg 58%
    18:00 +26°C° 0 mm 3 mps 672 mmHg 66%
    19:00 +24°C° 0 mm 3 mps 672 mmHg 74%
    20:00 +23°C° 0 mm 2 mps 672 mmHg 82%
    21:00 +21°C° 0 mm 2 mps 672 mmHg 85%
    22:00 +21°C° 0 mm 2 mps 672 mmHg 88%
    23:00 +21°C° 0 mm 1 mps 672 mmHg 91%
    Show more